Location: Newark
(48.8604°N, 2.3376°E)
Time: 20:34:23
(UTC+00:00)

X-37B - Pass Details

Date: 01 October 2021
Orbit: 385 x 389 km, 45.0° (Epoch: 17 October)

Event Time Altitude Azimuth Distance (km) Brightness Sun altitude
Exits shadow 04:16:04 31° 203° (SSW) 710 1.6 -16.2°
Maximum altitude 04:16:17 31° 194° (SSW) 704 1.6 -16.2°
Drops below altitude 10° 04:19:09 10° 130° (SE) 1,411 3.9 -15.7°
Sets 04:21:20 0° 119° (ESE) 2,265 5.2 -15.4°
